Wind_Speed
10 10 10 10 10 11 11 12 12 12 12 12 12 11 10 10 10 10 11 11 10 10 11 12 13 13 14 14 15 15 15 15 16 16 16 17 18 19 19 20 20 20 21
11 11 11 11 11 11 12 12 13 13 13 13 13 12 11 11 10 11 12 12 11 12 13 14 15 15 15 15 16 17 17 17 18 18 19 19 20 20 20 21 21 22 23
12 12 12 12 12 12 13 13 13 13 13 14 14 14 13 13 13 13 13 14 13 14 15 15 16 17 17 18 18 18 18 19 19 20 20 20 21 21 22 22 22 23 24
13 13 13 13 14 14 14 14 14 15 15 15 15 16 16 16 15 15 15 16 15 16 17 18 18 19 19 20 20 20 20 20 21 21 21 22 23 23 23 24 24 25 25
14 14 14 13 14 14 15 16 16 16 16 16 17 18 18 17 17 17 17 18 18 18 19 19 20 20 21 21 20 21 21 22 23 24 24 25 26 26 25 25 25 26 27
15 14 14 14 14 15 16 16 17 17 17 17 18 18 18 17 18 19 19 20 20 20 21 21 21 22 21 22 22 23 23 24 25 25 26 27 27 27 27 27 27 28 28
16 15 15 15 16 17 17 17 18 18 18 18 18 18 18 18 19 19 20 21 21 21 22 23 23 23 23 23 24 24 25 25 26 26 27 27 27 28 28 28 29 30 30
18 17 17 18 18 19 18 19 19 19 18 18 18 19 19 19 20 21 21 22 22 22 22 23 23 23 24 25 25 25 26 26 27 28 28 28 28 29 29 29 29 30 30
19 19 19 19 19 19 19 20 20 20 19 19 20 20 19 20 21 22 22 22 22 22 22 23 24 25 25 26 26 27 27 27 28 28 28 29 29 29 30 30 30 30 31
21 20 20 19 19 20 20 20 20 20 20 20 20 20 21 21 22 22 23 23 23 22 22 23 24 25 25 26 27 27 27 28 28 28 28 29 29 29 29 29 30 30 31
22 22 21 21 21 21 21 21 21 21 21 21 21 22 23 23 23 23 23 23 22 22 23 24 25 25 26 27 27 27 27 28 28 28 29 29 29 29 30 30 30 30 31
22 22 22 22 22 22 21 22 22 22 22 22 23 23 25 25 24 23 23 23 23 23 23 24 25 26 27 26 27 27 28 28 28 29 30 30 30 30 30 31 31 31 31
22 22 22 22 22 22 22 23 23 23 23 23 24 24 24 24 24 23 23 23 23 23 24 25 26 26 26 27 28 28 29 29 30 30 31 31 31 31 31 31 31 32 32
23 22 22 22 23 23 23 23 23 24 24 24 24 24 25 24 23 23 23 22 23 24 25 26 26 27 27 27 28 29 30 30 31 31 31 31 31 31 31 31 31 32 32
23 23 23 23 23 24 24 24 24 24 25 25 25 25 25 25 24 23 22 23 24 25 25 26 27 27 28 28 29 30 30 30 30 31 31 31 31 31 31 32 32 33 33
24 23 23 23 23 23 24 24 24 24 24 25 24 24 25 24 24 23 24 24 25 25 26 26 27 28 28 29 29 30 31 31 31 30 30 30 31 31 32 32 32 32 32
24 24 23 23 24 24 24 24 23 23 23 23 23 24 24 23 23 23 24 24 25 26 26 27 27 28 29 29 30 31 31 31 31 31 31 32 32 32 32 31 32 32 32
24 24 24 24 25 24 24 23 22 22 22 22 22 22 23 23 22 23 24 24 25 26 26 27 28 29 29 30 30 31 32 31 31 31 32 32 32 31 31 31 31 32 32
24 24 24 24 24 23 23 22 22 22 22 22 22 22 22 23 23 24 24 25 26 27 27 29 29 29 30 30 31 32 32 32 32 31 31 31 31 31 31 31 31 32 32
24 24 23 23 23 22 22 22 22 22 22 22 23 23 23 24 24 24 25 26 27 28 29 29 30 30 30 31 31 32 32 32 31 31 31 30 30 30 30 31 32 32 32
24 23 23 23 22 22 22 23 23 23 23 23 23 24 24 24 24 25 26 28 28 28 29 29 30 30 31 31 31 31 31 31 30 29 28 29 29 30 30 31 31 32 32
24 23 23 22 23 23 23 23 23 24 24 23 23 23 24 24 25 26 27 27 28 29 30 30 30 30 30 29 30 30 29 29 29 29 29 29 29 29 29 30 31 31 31
23 23 23 23 23 23 23 23 23 23 23 23 23 24 24 25 26 27 27 28 29 29 29 29 29 28 28 29 29 29 28 28 28 29 29 29 29 29 30 30 30 30 30
23 23 23 23 22 22 23 24 24 24 24 24 25 25 26 26 27 27 28 29 29 28 28 28 27 27 27 28 27 28 28 29 29 29 29 30 30 30 30 30 31 31 30
23 23 23 22 22 22 23 23 24 24 24 25 25 25 26 26 27 28 28 28 28 27 27 27 27 27 27 27 28 28 29 29 29 29 30 30 30 30 30 30 30 30 30
22 22 22 22 22 22 22 22 22 23 23 24 25 26 26 27 28 28 28 28 27 27 27 27 27 28 28 29 29 29 29 29 29 29 29 30 30 30 30 30 30 30 30
Wind_Direction
308 311 315 319 321 321 320 316 309 307 304 300 298 299 295 295 296 297 299 295 296 302 307 305 303 300 297 296 294 294 294 295 295 296 295 293 293 292 289 286 286 285 284
302 305 305 307 312 316 317 313 309 304 300 299 297 296 293 296 299 300 299 303 301 305 306 307 306 303 299 296 294 294 293 293 293 294 293 292 292 291 291 287 285 284 284
295 297 297 299 303 306 308 308 308 305 301 298 295 295 295 296 296 298 297 299 302 304 306 306 306 305 301 298 295 293 291 292 293 293 292 292 292 291 291 290 288 287 286
291 292 293 295 297 299 300 302 302 301 299 297 296 296 294 291 292 292 294 293 295 298 300 301 301 303 302 300 296 293 293 293 294 293 292 292 293 292 290 290 290 290 289
289 290 292 294 297 298 300 300 299 298 298 297 297 296 292 289 290 292 293 293 295 295 296 297 298 302 302 301 299 296 295 295 295 294 293 293 291 291 290 289 289 288 288
292 291 290 291 294 297 298 298 299 297 295 294 295 296 293 292 292 292 290 290 291 294 293 295 298 299 300 300 300 299 297 296 294 295 295 294 292 289 289 289 289 289 288
291 290 292 292 292 294 295 296 296 295 293 294 297 298 297 295 295 293 293 290 290 292 294 295 297 297 297 298 299 298 297 296 296 298 299 297 295 291 290 290 290 290 289
287 288 289 291 292 294 295 295 295 295 294 293 294 295 295 293 295 294 293 292 290 292 293 294 297 299 299 300 299 299 298 298 298 298 297 295 295 293 292 290 290 290 290
287 290 293 292 291 294 295 294 294 296 296 294 293 293 294 294 295 295 294 294 291 290 292 294 297 297 298 299 299 299 299 299 298 297 297 297 296 295 295 294 292 291 290
283 286 289 292 293 295 296 296 297 297 295 295 293 293 292 294 295 295 295 294 291 292 294 296 298 299 300 302 302 301 301 300 298 298 298 298 297 297 297 296 295 294 292
281 284 287 288 292 294 295 295 295 295 295 295 295 294 293 293 294 295 295 294 294 295 296 297 298 300 300 301 301 301 301 300 299 299 299 299 298 297 296 297 297 296 295
280 283 286 288 290 293 294 296 295 295 295 295 296 296 296 295 294 294 294 296 296 297 298 300 300 301 301 300 300 301 301 300 300 300 300 299 298 297 297 297 297 296 296
283 284 285 287 289 290 291 293 293 293 293 293 294 297 299 297 293 293 294 296 297 298 300 302 302 303 302 301 301 301 301 300 300 301 300 298 297 296 296 297 296 296 296
283 283 284 286 287 288 290 291 291 291 292 293 295 297 298 299 298 296 295 297 297 298 300 302 303 304 303 303 303 303 302 302 301 301 301 300 298 297 296 297 297 297 297
280 281 282 284 287 289 290 291 290 290 291 292 294 296 298 297 297 297 298 298 297 299 300 301 303 305 305 305 305 305 304 304 303 303 302 300 299 298 297 298 298 298 298
280 281 283 286 287 290 290 290 290 290 291 292 292 295 297 297 296 297 298 298 300 302 301 302 304 305 304 304 305 305 305 305 304 304 303 302 300 300 299 299 299 300 301
278 280 282 284 287 289 289 289 290 291 291 292 293 294 295 295 298 299 298 297 300 301 302 303 304 305 305 305 306 305 306 305 305 304 303 302 301 300 300 300 300 301 302
278 280 281 283 286 287 288 289 289 289 291 291 293 295 297 298 299 298 298 300 302 303 304 305 305 305 306 306 307 307 307 306 306 306 305 303 301 300 301 301 302 302 302
279 280 281 283 285 286 287 287 288 289 290 291 293 294 295 296 298 299 299 300 302 303 305 305 305 305 306 307 307 308 308 308 307 307 307 306 304 302 303 303 304 304 303
280 280 280 281 283 284 285 287 288 289 291 291 292 293 294 295 297 299 300 300 301 302 304 304 304 305 306 306 307 308 309 309 308 306 305 306 306 306 306 305 305 306 305
281 281 282 282 285 286 286 286 287 288 289 290 292 293 294 296 297 299 301 302 301 301 303 304 305 305 305 306 307 308 309 309 309 309 307 307 307 308 308 308 307 307 306
280 281 283 285 286 287 286 286 287 288 289 290 291 292 294 296 298 300 302 302 302 301 302 303 305 306 306 307 307 308 308 308 309 309 310 310 310 310 311 311 311 309 308
280 281 283 286 287 286 286 285 286 288 289 290 291 292 295 296 299 301 302 303 303 303 303 304 305 306 307 308 308 309 309 308 308 309 310 310 310 310 311 312 313 311 310
279 280 282 284 285 286 287 287 289 290 290 290 291 292 294 297 299 301 303 304 304 303 304 305 306 306 307 308 309 309 309 309 309 310 311 311 311 311 311 312 312 312 311
279 280 282 284 286 287 288 289 290 290 290 290 292 294 296 297 298 300 302 304 304 304 304 305 307 307 308 308 308 308 309 309 310 310 311 311 311 312 312 312 313 313 312
278 281 282 284 286 288 290 292 292 291 291 291 292 294 294 296 298 299 301 302 303 304 305 306 307 307 307 307 308 309 309 309 310 310 311 311 312 312 312 312 312 312 311
Height
5909 5907 5906 5905 5903 5901 5900 5898 5896 5895 5893 5892 5891 5889 5888 5886 5885 5883 5882 5881 5880 5879 5877 5876 5874 5873 5871 5870 5868 5866 5865 5863 5861 5860 5857 5856 5854 5851 5849 5848 5846 5844 5842
5906 5905 5903 5902 5900 5899 5897 5895 5894 5892 5891 5889 5888 5887 5885 5884 5882 5881 5880 5878 5877 5875 5874 5873 5871 5869 5867 5865 5864 5862 5860 5858 5857 5855 5853 5851 5848 5846 5844 5842 5840 5838 5836
5903 5902 5901 5899 5898 5896 5894 5893 5891 5889 5888 5886 5885 5884 5882 5881 5879 5878 5877 5875 5873 5872 5870 5869 5867 5865 5863 5861 5859 5857 5855 5853 5851 5849 5847 5845 5843 5841 5838 5836 5834 5831 5829
5899 5898 5897 5896 5894 5892 5891 5889 5887 5886 5884 5882 5881 5879 5878 5877 5876 5874 5873 5871 5869 5868 5866 5864 5862 5860 5858 5856 5853 5851 5849 5847 5845 5843 5841 5839 5836 5834 5832 5829 5827 5825 5822
5896 5894 5893 5891 5890 5888 5887 5885 5883 5881 5880 5878 5876 5874 5872 5872 5871 5870 5868 5867 5865 5864 5862 5860 5857 5855 5853 5850 5848 5846 5844 5841 5839 5837 5834 5832 5829 5827 5825 5822 5820 5818 5815
5892 5891 5888 5887 5886 5884 5883 5881 5879 5877 5875 5874 5872 5870 5867 5866 5866 5865 5863 5862 5860 5858 5856 5854 5852 5850 5848 5845 5843 5840 5838 5835 5833 5830 5828 5825 5822 5819 5817 5814 5812 5810 5808
5888 5886 5885 5882 5881 5880 5879 5877 5874 5872 5871 5869 5867 5865 5863 5862 5860 5859 5858 5855 5854 5853 5851 5849 5846 5844 5842 5839 5837 5834 5831 5828 5826 5823 5821 5818 5815 5812 5809 5806 5803 5801 5799
5883 5881 5880 5878 5877 5875 5873 5872 5870 5868 5866 5864 5862 5861 5859 5858 5856 5854 5852 5850 5848 5846 5844 5842 5840 5838 5835 5833 5830 5828 5825 5822 5819 5816 5813 5810 5807 5804 5801 5798 5795 5792 5789
5877 5876 5875 5873 5872 5870 5868 5866 5865 5862 5860 5859 5857 5856 5854 5852 5851 5849 5846 5844 5842 5840 5838 5836 5834 5831 5829 5826 5824 5821 5818 5815 5811 5808 5805 5802 5799 5796 5792 5789 5786 5783 5780
5872 5871 5869 5868 5867 5865 5863 5861 5859 5857 5855 5853 5852 5850 5848 5847 5845 5843 5841 5839 5837 5834 5832 5830 5828 5825 5822 5819 5816 5813 5810 5807 5804 5801 5797 5794 5791 5787 5784 5781 5777 5774 5771
5865 5865 5863 5862 5861 5859 5857 5855 5854 5852 5850 5848 5846 5845 5842 5840 5838 5836 5834 5832 5830 5827 5825 5823 5821 5818 5815 5812 5809 5806 5803 5799 5796 5793 5789 5786 5783 5779 5776 5772 5769 5766 5762
5859 5858 5858 5856 5855 5853 5851 5850 5848 5846 5844 5842 5841 5839 5836 5833 5831 5829 5828 5825 5823 5821 5818 5816 5813 5811 5808 5805 5802 5798 5795 5792 5788 5785 5781 5778 5774 5771 5767 5764 5760 5757 5753
5853 5852 5851 5850 5848 5847 5845 5844 5842 5840 5838 5836 5834 5832 5830 5827 5825 5823 5821 5819 5817 5814 5812 5809 5806 5804 5800 5797 5794 5791 5787 5784 5780 5777 5773 5769 5766 5762 5759 5755 5751 5748 5744
5846 5846 5844 5843 5842 5840 5839 5837 5835 5833 5831 5830 5828 5826 5823 5820 5818 5816 5814 5812 5810 5808 5805 5802 5799 5796 5793 5790 5787 5783 5779 5776 5772 5768 5764 5760 5757 5753 5750 5746 5742 5739 5735
5840 5839 5838 5837 5835 5833 5832 5830 5828 5826 5825 5823 5821 5819 5816 5814 5812 5810 5808 5806 5803 5801 5798 5795 5792 5789 5786 5782 5779 5775 5771 5767 5763 5759 5755 5752 5748 5744 5741 5737 5733 5730 5726
5833 5832 5831 5830 5828 5826 5825 5823 5821 5819 5817 5816 5814 5812 5810 5807 5804 5803 5801 5799 5796 5794 5791 5788 5785 5782 5779 5775 5771 5767 5763 5759 5755 5751 5747 5743 5739 5735 5732 5728 5724 5720 5717
5826 5825 5824 5823 5821 5819 5817 5816 5814 5812 5810 5809 5807 5805 5803 5801 5798 5796 5794 5792 5789 5787 5784 5781 5778 5774 5771 5767 5763 5759 5755 5751 5746 5742 5738 5734 5730 5727 5723 5719 5715 5712 5708
5819 5818 5817 5815 5814 5812 5810 5809 5807 5805 5804 5802 5801 5798 5796 5794 5792 5790 5787 5785 5782 5779 5777 5773 5770 5767 5763 5759 5755 5751 5747 5743 5738 5734 5730 5726 5722 5718 5714 5711 5707 5703 5699
5812 5811 5809 5808 5807 5805 5804 5802 5801 5799 5797 5796 5794 5792 5790 5788 5786 5783 5781 5778 5775 5772 5769 5766 5762 5759 5755 5751 5747 5743 5739 5734 5730 5726 5722 5717 5713 5710 5706 5702 5698 5694 5690
5804 5803 5802 5801 5799 5798 5797 5795 5794 5793 5791 5789 5788 5786 5784 5782 5779 5777 5774 5771 5768 5765 5762 5758 5754 5751 5747 5743 5739 5735 5731 5726 5722 5718 5714 5710 5706 5702 5698 5694 5690 5686 5682
5797 5796 5795 5794 5792 5791 5790 5789 5787 5786 5784 5783 5781 5779 5777 5775 5772 5769 5767 5763 5760 5757 5754 5750 5746 5743 5739 5735 5731 5727 5723 5719 5715 5710 5706 5703 5698 5694 5690 5686 5682 5677 5673
5790 5789 5788 5787 5786 5784 5783 5782 5780 5779 5777 5776 5774 5772 5770 5767 5765 5762 5759 5756 5753 5749 5746 5742 5739 5735 5731 5727 5723 5719 5715 5711 5707 5704 5700 5695 5691 5687 5682 5678 5674 5669 5665
5783 5782 5782 5780 5779 5778 5776 5775 5773 5771 5770 5768 5767 5765 5763 5760 5758 5755 5752 5748 5745 5741 5738 5734 5731 5727 5723 5719 5716 5712 5708 5704 5700 5696 5692 5688 5684 5679 5675 5671 5666 5662 5658
5776 5776 5775 5774 5772 5770 5769 5767 5766 5764 5763 5761 5759 5757 5755 5753 5750 5747 5744 5740 5737 5733 5730 5727 5723 5720 5716 5712 5709 5705 5701 5697 5693 5689 5685 5680 5676 5672 5668 5663 5659 5655 5651
5769 5769 5768 5767 5765 5764 5762 5760 5758 5757 5755 5754 5752 5750 5748 5746 5743 5740 5736 5733 5729 5726 5723 5719 5716 5712 5709 5705 5701 5697 5693 5689 5685 5681 5677 5673 5669 5665 5660 5656 5652 5647 5643
5763 5762 5761 5760 5758 5757 5755 5754 5752 5750 5748 5747 5745 5743 5741 5738 5735 5732 5729 5725 5722 5719 5715 5712 5709 5705 5701 5698 5694 5690 5685 5681 5677 5673 5669 5665 5661 5657 5653 5649 5644 5640 5636